www.pogodaiklimat.ru

Погода и климат >> Архив погоды >> Россия >> Оренбургская область >> Беляевка


ПОГОДА в Беляевке

  • Прогноз погоды в Беляевке
  • Монитор погоды в Беляевке
  • Климат города

АРХИВ ПОГОДЫ в Беляевке

Время (UTC), дата Ветер
(напр.,м/с)
 
Видим.   Явления Облачность Т
(С)
Тd
(С)
f
(%)
Тe
(С)
Тes
(С)
Комфортность P
(гПа)
Po
(гПа)
Тmin
(С)
Tmax
(С)
R
(мм)
S
(см)
03 16.03 В 4 20 км ясно -13.0 -14.1 91 -20 -20 1030.7 1012.8 -14.0 33
06 16.03 В 6
{11}
20 км ясно -9.6 -12.4 80 -18 -16 1030.9 1013.3
09 16.03 В 9-12
{12}
20 км ясно -6.6 -10.1 76 -16 -15 1030.2 1012.8
12 16.03 В 8-10
{12}
20 км ясно -5.1 -8.2 79 -14 -13 1030.1 1012.8
15 16.03 В 6
{11}
10 км ясно -6.9 -9.0 85 -15 -15 1030.8 1013.3 -5.0
18 16.03 В 8-11
{11}
10 км ясно -8.1 -10.2 85 -18 -18 1030.8 1013.2
21 16.03 ЮВ 4
{13}
4000 м дымка ясно -10.1 -11.5 89 -17 -17 1031.6 1013.9
00 17.03 ЮВ 4
{10}
4000 м дымка ясно -11.4 -12.8 89 -18 -18 1031.1 1013.3
03 17.03 В 6 4000 м дымка ясно -11.6 -13.4 86 -20 -20 1031.5 1013.7 -12.3 33
06 17.03 В 8
{11}
10 км ясно -10.0 -12.6 81 -20 -19 1032.3 1014.6
09 17.03 В 6-11
{13}
20 км ясно -5.8 -9.2 77 -14 -10 1030.8 1013.4
12 17.03 ЮВ 6
{14}
20 км 9/0
[Ci fib]
-5.3 -8.7 77 -13 -12 1030.1 1012.8
15 17.03 В 8-12
{13}
20 км 9/0
[Ci fib]
-6.6 -10.5 74 -16 -16 1029.1 1011.7 -4.9
18 17.03 В 10-14
{15}
10 км 8/0
[Ci fib]
-7.8 -10.1 84 -18 -18 1028.6 1011.1
21 17.03 В 8
{14}
10 км 9/0
[Ci fib]
-9.7 -11.3 88 -19 -19 1029.1 1011.4
00 18.03 В 7 10 км 9/0
[Ci fib]
-10.8 -13.1 83 -20 -20 1028.9 1011.2
03 18.03 В 9-12
{12}
20 км 9/0
[Ci fib]
-11.1 -14.0 79 -21 -21 1028.5 1010.8 -11.6 33
06 18.03 В 7-10
{15}
20 км 9/0
[Ac trans]
-8.8 -12.9 72 -18 -17 1028.5 1010.9
09 18.03 В 11-15
{15}
20 км 9/0
[Ac trans]
-6.4 -11.2 69 -17 -17 1027.5 1010.1
12 18.03 ЮВ 5
{15}
20 км 8/0
[Ac trans]
-5.4 -10.6 67 -12 -12 1027.8 1010.5
15 18.03 В 7
{11}
20 км 9/0
[Ac trans]
-7.4 -13.1 64 -16 -16 1027.1 1009.7 -5.0
18 18.03 В 8-11
{14}
20 км ясно -9.3 -13.3 73 -19 -19 1027.3 1009.8
21 18.03 ЮВ 6-10
{14}
10 км ясно -10.5 -13.9 76 -19 -19 1027.7 1010.0
00 19.03 В 7-11
{12}
10 км ясно -11.3 -14.4 78 -21 -21 1027.1 1009.4
03 19.03 В 5
{12}
20 км 8/0
[Ac trans Ci fib]
-11.7 -14.8 78 -20 -20 1027.3 1009.6 -12.2 33
06 19.03 В 10-13
{15}
20 км ясно -9.7 -13.2 76 -20 -20 1027.1 1009.5
09 19.03 В 10-13
{16}
20 км ясно -6.6 -11.1 70 -16 -16 1026.6 1009.2
12 19.03 В 10-13
{15}
20 км ясно -4.1 -9.5 66 -13 -13 1025.3 1008.1
15 19.03 В 8-11
{14}
10 км 10/0
[Ac As]
-5.8 -10.0 72 -15 -15 1025.7 1008.4 -4.1
18 19.03 ЮВ 3
{13}
10 км ясно -6.7 -10.0 77 -12 -12 1026.3 1008.9
21 19.03 В 7 10 км ясно -8.1 -11.3 78 -17 -17 1026.6 1009.1
00 20.03 В 5
{13}
10 км ясно -9.3 -12.8 76 -17 -17 1025.3 1007.8
03 20.03 В 6
{12}
20 км ясно -9.5 -13.3 74 -18 -18 1024.9 1007.4 -9.7 32
06 20.03 В 10-15
{15}
20 км ясно -7.4 -11.7 71 -17 -17 1024.3 1007.0 -10.1
09 20.03 В 11-13
{15}
20 км 8/0
[Ac As]
-4.1 -8.2 73 -14 -14 1023.0 1005.8
12 20.03 В 10-14
{17}
20 км 8/0
[Ac As]
-3.2 -7.4 73 -12 -12 1022.3 1005.2
15 20.03 В 10-16
{16}
10 км 10/0
[As op]
-4.7 -8.3 76 -14 -14 1023.0 1005.8 -2.5
18 20.03 В 12-16
{18}
10 км ясно -6.8 -10.0 78 -18 -18 1023.2 1005.9
21 20.03 В 8-11
{16}
10 км ясно -7.5 -11.0 76 -17 -17 1022.8 1005.4
00 21.03 В 7-10
{13}
10 км ясно -7.2 -11.1 74 -16 -16 1022.1 1004.8
03 21.03 В 8-11
{14}
20 км ясно -8.4 -12.7 71 -18 -18 1022.7 1005.3 -8.4 32
06 21.03 В 7-11
{14}
20 км 6/0
[Ci fib]
-5.0 -12.2 57 -13 -11 1022.4 1005.2
09 21.03 В 8-12
{12}
20 км 9/0
[Ci fib]
-1.4 -9.6 54 -9 -7 1022.0 1005.0
12 21.03 В 7
{16}
20 км 6/0
[Ci fib]
-0.8 -7.8 59 -8 -7 1021.6 1004.7
15 21.03 В 11-16
{16}
10 км 3/0
[Ac lent]
-3.1 -9.6 61 -12 -12 1021.0 1004.0 -0.1
18 21.03 В 8-11
{20}
10 км ясно -4.1 -10.3 62 -12 -12 1022.7 1005.5
21 21.03 ЮВ 3
{11}
10 км ясно -4.8 -11.1 61 -10 -10 1022.7 1005.5
00 22.03 СВ 4 10 км ясно -6.5 -12.2 64 -13 -13 1022.9 1005.6
03 22.03 В 7
{11}
20 км ясно -7.9 -13.2 66 -17 -16 1023.6 1006.2 -8.2 32
06 22.03 В 5
{14}
20 км ясно -4.5 -11.0 60 -11 -8 1024.6 1007.4
09 22.03 В 12-16
{16}
20 км ясно -2.8 -8.4 65 -12 -12 1023.6 1006.6
12 22.03 В 9-13
{16}
20 км ясно -1.3 -6.8 66 -9 -9 1023.8 1006.8
15 22.03 В 9-12
{16}
10 км 10/0
[As op]
-2.4 -6.9 71 -11 -11 1025.4 1008.3 -1.2
18 22.03 В 5
{13}
10 км 10/0
[As op]
-3.1 -5.9 81 -10 -10 1026.6 1009.4
21 22.03 В 6 10 км 10/0
[As op]
-4.0 -6.4 83 -12 -12 1026.8 1009.6

 

Местоположение метеостанции Беляевка (Оренбургская область, Россия): широта 51.42 долгота 56.42 высота над уровнем моря 131 м.

В архиве по умолчанию представлена погода в Беляевке за последнюю неделю. Архивные данные за месяц целиком и за предыдущие месяцы, начиная с января 2011 года, Вы можете получить, выбрав интересующий диапазон дат из раскрывающегося списка и нажав кнопку "Ввод!".

Внимание! Время в таблицах - всемирное. Для получения местного времени необходимо прибавить поправку, которая в Беляевке равна 5 ч.

Смотрите также архив погоды в соседних городах и на ближайших метеорологических станциях:

Погода в Кувандыке (Актюбинская область, Казахстан) (66 км)
Погода в Акбулаке (Оренбургская область, Россия) (71 км)
Погода в Мартуке (Актюбинская область, Казахстан) (75 км)
Погода в Оренбурге (Оренбургская область, Россия) (96 км)
Погода в Троицком Т (Оренбургская область, Россия) (101 км)
Погода в Родниковке (Актюбинская область, Казахстан) (101 км)
Погода в Соль-Илецк (Оренбургская область, Россия) (102 км)
Погода в Зилаире (Башкирия, Россия) (112 км)
Погода в Кос-Истеке (Актюбинская область, Казахстан) (129 км)
Погода в Акъяре (Башкирия, Россия) (131 км)

Пояснения к столбцам:

Ветер - указаны скорость ветра в м/с - средняя за 10 мин, порывы в срок и между сроками (в фигурных скобках) и направление, откуда дует ветер: С - северный, СВ - северо-восточный, В - восточный, ЮВ - юго-восточный, Ю - южный, ЮЗ - юго-западный, З - западный, СЗ - северо-западный.
Видимость - горизонтальная дальность видимости в метрах или километрах. При видимости от 1 до 10 км при отсутствии осадков обычно наблюдается дымка, при ухудшении видимости до 1 км и менее - туман. В сухую погоду видимость может ухудшаться дымом, пылью или мглою.
Явления - указаны атмосферные явления, наблюдавшиеся в срок или в последний час перед сроком; фигурными скобками обозначены явления, наблюдавшиеся между сроками (за 1-3 часа до срока); квадратными скобками обозначены град или гололедные отложения с указанием их диаметра в мм.
Облачность - указаны через наклонную черту общая и нижняя облачность в баллах и высота нижней границы облаков в метрах; квадратными скобками обозначены формы облаков: Ci - перистые, Cs - перисто-слоистые, Cc - перисто-кучевые, Ac - высококучевые, As - высокослоистые, Sc - слоисто-кучевые, Ns - слоисто-дождевые, Cu - кучевые, Cb - кучево-дождевые. Подробнее классификацию облаков см. в Атласе облаков (PDF).
T - Температура воздуха - температура, измеренная на высоте 2 м над землей.
Td - Температура точки росы - температура, при понижении до которой содержащийся в воздухе водяной пар достигнет насыщения.
f - Относительная влажность воздуха - влажноcть воздуха, измеренная на высоте 2 м над землей.
Te - Эффективная температура - температура, которую ощущает одетый по сезону человек в тени. Характеристика душности погоды. При расчете учитывается влияние влажности воздуха и скорости ветра на теплоощущения человека.
Tes - Эффективная температура на солнце - температура, которую ощущает человек, с поправкой на солнечный нагрев. Характеристика знойности погоды. Зависит от высоты солнца над горизонтом, облачности и скорости ветра. Ночью, в пасмурную погоду, а также при ветре 12 м/с и более поправка равна нулю.
P - Атмосферное давление - приведенное к уровню моря атмосферное давление.
Po - Атмосферное давление - измеренное на уровне метеостанции атмосферное давление.
Tmin - Минимальная температура - минимум температуры воздуха на высоте 2 м над землей.
Tmax - Максимальная температура - максимум температуры воздуха на высоте 2 м над землей.
R - Количество осадков - Количество выпавших осадков, мм. При наведении курсора мыши на число - период времени, за который выпало указанное количество осадков.
S - Снежный покров - Высота снежного покрова, см. При наведении курсора мыши на число - состояние снежного покрова и степень покрытия местности в баллах.